TimeCET,TemperatureF,Dew PointF,Humidity,Sea Level PressureIn,VisibilityMPH,Wind Direction,Wind SpeedMPH,Gust SpeedMPH,PrecipitationIn,Events,Conditions,WindDirDegrees,DateUTC
12:00 AM,47,35,53,29.64,34,WNW,8.1,,,,Clear,290,2014-01-20 23:00:00
12:00 AM,46.4,35.6,66,29.62,6.2,WNW,8.1,-,N/A,,Unknown,290,2014-01-20 23:00:00
12:30 AM,46.4,35.6,66,29.62,6.2,West,5.8,-,N/A,,Unknown,270,2014-01-20 23:30:00
1:00 AM,46,34,53,29.63,37,West,4.6,,,,Clear,280,2014-01-21 00:00:00
1:00 AM,46.4,33.8,62,29.62,6.2,West,4.6,-,N/A,,Unknown,280,2014-01-21 00:00:00
1:30 AM,46.4,33.8,62,29.62,6.2,West,3.5,-,N/A,,Unknown,270,2014-01-21 00:30:00
2:00 AM,45,34,55,29.63,37,West,2.3,,,,Clear,260,2014-01-21 01:00:00
2:00 AM,44.6,33.8,66,29.62,6.2,Variable,2.3,-,N/A,,Unknown,0,2014-01-21 01:00:00
2:30 AM,44.6,33.8,66,29.62,6.2,West,4.6,-,N/A,,Unknown,280,2014-01-21 01:30:00
3:00 AM,43,35,64,29.63,12,WNW,5.8,,,,Clear,290,2014-01-21 02:00:00
3:00 AM,42.8,35.6,76,29.62,6.2,WNW,5.8,-,N/A,,Unknown,290,2014-01-21 02:00:00
3:30 AM,41.0,33.8,76,29.62,6.2,WNW,6.9,-,N/A,,Unknown,300,2014-01-21 02:30:00
4:00 AM,41,35,71,29.63,37,WNW,6.9,,,,Clear,300,2014-01-21 03:00:00
4:00 AM,41.0,35.6,81,29.62,6.2,WNW,6.9,-,N/A,,Unknown,300,2014-01-21 03:00:00
4:30 AM,41.0,35.6,81,29.62,6.2,WNW,6.9,-,N/A,,Unknown,300,2014-01-21 03:30:00
5:00 AM,41,35,70,29.64,37,WNW,4.6,,,,Clear,300,2014-01-21 04:00:00
5:00 AM,41.0,33.8,76,29.62,6.2,WNW,4.6,-,N/A,,Unknown,300,2014-01-21 04:00:00
5:30 AM,41.0,33.8,76,29.62,6.2,WNW,6.9,-,N/A,,Unknown,300,2014-01-21 04:30:00
6:00 AM,40,34,72,29.65,37,WNW,8.1,,,,Clear,290,2014-01-21 05:00:00
6:00 AM,41.0,33.8,76,29.62,6.2,WNW,8.1,-,N/A,,Unknown,290,2014-01-21 05:00:00
6:30 AM,41.0,33.8,76,29.65,6.2,WNW,6.9,-,N/A,,Unknown,300,2014-01-21 05:30:00
7:00 AM,40,34,72,29.67,37,WNW,8.1,,,,Clear,290,2014-01-21 06:00:00
7:00 AM,41.0,33.8,76,29.65,6.2,WNW,8.1,-,N/A,,Unknown,290,2014-01-21 06:00:00
7:30 AM,41.0,33.8,76,29.65,6.2,WNW,6.9,-,N/A,,Unknown,300,2014-01-21 06:30:00
8:00 AM,40,34,73,29.68,37,WNW,6.9,,,,Clear,300,2014-01-21 07:00:00
8:00 AM,41.0,33.8,76,29.65,6.2,WNW,6.9,-,N/A,,Unknown,300,2014-01-21 07:00:00
8:30 AM,41.0,35.6,81,29.68,6.2,WNW,5.8,-,N/A,,Unknown,300,2014-01-21 07:30:00
9:00 AM,43,36,69,29.70,31,WNW,6.9,,,,Clear,300,2014-01-21 08:00:00
9:00 AM,42.8,35.6,76,29.68,6.2,WNW,6.9,-,N/A,,Unknown,300,2014-01-21 08:00:00
9:30 AM,44.6,37.4,76,29.68,6.2,NW,5.8,-,N/A,,Unknown,310,2014-01-21 08:30:00
10:00 AM,48,38,60,29.71,31,West,5.8,,,,Clear,280,2014-01-21 09:00:00
10:00 AM,48.2,39.2,71,29.68,6.2,West,5.8,-,N/A,,Unknown,280,2014-01-21 09:00:00
10:30 AM,50.0,35.6,58,29.71,6.2,West,4.6,-,N/A,,Unknown,280,2014-01-21 09:30:00
11:00 AM,51,36,46,29.72,37,WNW,5.8,,,,Clear,290,2014-01-21 10:00:00
11:00 AM,51.8,35.6,54,29.71,6.2,WNW,5.8,-,N/A,,Unknown,290,2014-01-21 10:00:00
11:30 AM,53.6,37.4,54,29.71,6.2,NNW,5.8,-,N/A,,Unknown,340,2014-01-21 10:30:00
12:00 PM,54,36,39,29.72,37,Calm,Calm,,,,Clear,,2014-01-21 11:00:00
12:00 PM,53.6,35.6,51,29.71,6.2,Calm,Calm,-,N/A,,Unknown,0,2014-01-21 11:00:00
12:30 PM,55.4,37.4,51,29.71,6.2,NNW,6.9,-,N/A,,Unknown,340,2014-01-21 11:30:00
1:00 PM,57,37,35,29.71,12,NNW,5.8,,,,Clear,340,2014-01-21 12:00:00
1:00 PM,57.2,37.4,48,29.68,6.2,NNW,5.8,-,N/A,,Unknown,340,2014-01-21 12:00:00
1:30 PM,57.2,37.4,48,29.68,6.2,NNW,5.8,-,N/A,,Unknown,340,2014-01-21 12:30:00
2:00 PM,58,38,35,29.70,12,NNW,6.9,,,,Clear,330,2014-01-21 13:00:00
2:00 PM,59.0,37.4,45,29.68,6.2,NNW,6.9,-,N/A,,Unknown,330,2014-01-21 13:00:00
2:30 PM,59.0,37.4,45,29.68,6.2,NNW,6.9,-,N/A,,Unknown,330,2014-01-21 13:30:00
3:00 PM,57,41,45,29.70,37,West,9.2,,,,Clear,270,2014-01-21 14:00:00
3:00 PM,57.2,41.0,55,29.68,6.2,West,9.2,-,N/A,,Unknown,270,2014-01-21 14:00:00
3:30 PM,57.2,41.0,55,29.68,6.2,West,8.1,-,N/A,,Unknown,270,2014-01-21 14:30:00
4:00 PM,56,40,45,29.72,12,West,8.1,,,,Clear,260,2014-01-21 15:00:00
4:00 PM,57.2,41.0,55,29.71,6.2,West,8.1,-,N/A,,Unknown,260,2014-01-21 15:00:00
4:30 PM,57.2,41.0,55,29.71,6.2,West,6.9,-,N/A,,Unknown,270,2014-01-21 15:30:00
5:00 PM,55,40,45,29.73,34,WNW,6.9,,,,Clear,290,2014-01-21 16:00:00
5:00 PM,55.4,39.2,54,29.71,6.2,WNW,6.9,-,N/A,,Unknown,290,2014-01-21 16:00:00
5:30 PM,51.8,39.2,62,29.74,6.2,WNW,9.2,-,N/A,,Unknown,290,2014-01-21 16:30:00
6:00 PM,49,40,62,29.75,28,NW,5.8,,,,Clear,310,2014-01-21 17:00:00
6:00 PM,50.0,39.2,66,29.74,6.2,NW,5.8,-,N/A,,Unknown,310,2014-01-21 17:00:00
6:30 PM,48.2,39.2,71,29.74,6.2,Calm,Calm,-,N/A,,Unknown,0,2014-01-21 17:30:00
7:00 PM,47,39,65,29.77,16,West,3.5,,,,Clear,280,2014-01-21 18:00:00
7:00 PM,48.2,39.2,71,29.74,6.2,West,3.5,-,N/A,,Unknown,280,2014-01-21 18:00:00
7:30 PM,46.4,37.4,71,29.77,6.2,WNW,3.5,-,N/A,,Unknown,290,2014-01-21 18:30:00
8:00 PM,45,38,70,29.78,11,North,2.3,,,,Clear,350,2014-01-21 19:00:00
8:00 PM,44.6,39.2,81,29.77,6.2,Variable,2.3,-,N/A,,Unknown,0,2014-01-21 19:00:00
8:30 PM,42.8,37.4,81,29.77,6.2,West,3.5,-,N/A,,Unknown,280,2014-01-21 19:30:00
9:00 PM,44,38,73,29.80,15,West,5.8,,,,Clear,270,2014-01-21 20:00:00
9:00 PM,44.6,37.4,76,29.77,6.2,West,5.8,-,N/A,,Unknown,270,2014-01-21 20:00:00
9:30 PM,42.8,37.4,81,29.80,6.2,Variable,3.5,-,N/A,,Unknown,0,2014-01-21 20:30:00
10:00 PM,44,37,68,29.81,17,West,3.5,,,,Clear,280,2014-01-21 21:00:00
10:00 PM,42.8,37.4,81,29.80,6.2,Variable,3.5,-,N/A,,Unknown,0,2014-01-21 21:00:00
10:30 PM,42.8,35.6,76,29.80,6.2,Variable,2.3,-,N/A,,Unknown,0,2014-01-21 21:30:00
11:00 PM,42,35,69,29.81,12,NW,3.5,,,,Clear,320,2014-01-21 22:00:00
11:00 PM,42.8,35.6,76,29.80,6.2,NW,3.5,-,N/A,,Unknown,320,2014-01-21 22:00:00
11:30 PM,41.0,35.6,81,29.80,6.2,WNW,5.8,-,N/A,,Unknown,290,2014-01-21 22:30:00